Time,TemperatureF,DewpointF,PressureIn,WindDirection,WindDirectionDegrees,WindSpeedMPH,WindSpeedGustMPH,Humidity,HourlyPrecipIn,Conditions,Clouds,dailyrainin,SoftwareType,DateUTC
2013-01-14 00:00:00,21.9,15.5,30.17,WNW,292,8.0,8.0,76,0.00,,,0.00,Wunderground v.1.15,2013-01-14 06:00:00,
2013-01-14 00:05:00,22.1,15.7,30.17,WNW,286,8.0,8.0,76,0.00,,,0.00,Wunderground v.1.15,2013-01-14 06:05:00,
2013-01-14 00:10:00,22.2,16.1,30.17,WNW,302,7.0,11.0,77,0.00,,,0.00,Wunderground v.1.15,2013-01-14 06:10:00,
2013-01-14 00:15:00,22.2,16.1,30.19,NW,326,7.0,11.0,77,0.00,,,0.00,Wunderground v.1.15,2013-01-14 06:15:00,
2013-01-14 00:19:00,22.2,16.1,30.19,West,274,6.0,6.0,77,0.00,,,0.00,Wunderground v.1.15,2013-01-14 06:19:00,
2013-01-14 00:24:00,22.1,15.7,30.19,NNW,329,7.0,11.0,76,0.00,,,0.00,Wunderground v.1.15,2013-01-14 06:24:00,
2013-01-14 00:29:00,21.9,15.5,30.19,NNW,336,9.0,13.0,76,0.00,,,0.00,Wunderground v.1.15,2013-01-14 06:29:00,
2013-01-14 00:34:00,21.6,16.1,30.19,NNW,336,11.0,13.0,79,0.00,,,0.00,Wunderground v.1.15,2013-01-14 06:34:00,
2013-01-14 00:39:00,21.8,15.4,30.19,NNW,329,11.0,11.0,76,0.00,,,0.00,Wunderground v.1.15,2013-01-14 06:39:00,
2013-01-14 00:44:00,21.8,15.4,30.19,WNW,300,9.0,11.0,76,0.00,,,0.00,Wunderground v.1.15,2013-01-14 06:44:00,
2013-01-14 00:49:00,21.8,15.1,30.19,NNW,327,10.0,11.0,75,0.00,,,0.00,Wunderground v.1.15,2013-01-14 06:49:00,
2013-01-14 00:55:00,21.6,14.9,30.19,WNW,286,10.0,11.0,75,0.00,,,0.00,Wunderground v.1.15,2013-01-14 06:55:00,
2013-01-14 01:00:00,21.4,14.4,30.20,NNW,337,9.0,12.0,74,0.00,,,0.00,Wunderground v.1.15,2013-01-14 07:00:00,
2013-01-14 01:04:00,21.1,13.8,30.20,North,349,10.0,12.0,73,0.00,,,0.00,Wunderground v.1.15,2013-01-14 07:04:00,
2013-01-14 01:09:00,21.1,13.8,30.20,NW,319,12.0,16.0,73,0.00,,,0.00,Wunderground v.1.15,2013-01-14 07:09:00,
2013-01-14 01:14:00,21.0,13.7,30.21,NNW,335,9.0,16.0,73,0.00,,,0.00,Wunderground v.1.15,2013-01-14 07:14:00,
2013-01-14 01:19:00,21.0,13.7,30.21,NNW,344,9.0,11.0,73,0.00,,,0.00,Wunderground v.1.15,2013-01-14 07:19:00,
2013-01-14 01:24:00,21.0,14.0,30.21,WNW,297,10.0,11.0,74,0.00,,,0.00,Wunderground v.1.15,2013-01-14 07:24:00,
2013-01-14 01:30:00,21.1,14.4,30.21,WNW,298,8.0,8.0,75,0.00,,,0.00,Wunderground v.1.15,2013-01-14 07:30:00,
2013-01-14 01:35:00,21.1,14.1,30.21,WNW,296,6.0,8.0,74,0.00,,,0.00,Wunderground v.1.15,2013-01-14 07:35:00,
2013-01-14 01:40:00,21.1,14.4,30.21,WNW,302,5.0,6.0,75,0.00,,,0.00,Wunderground v.1.15,2013-01-14 07:40:00,
2013-01-14 01:45:00,21.0,14.0,30.23,NW,313,7.0,7.0,74,0.00,,,0.00,Wunderground v.1.15,2013-01-14 07:45:00,
2013-01-14 01:50:00,21.0,13.7,30.23,NNW,331,7.0,8.0,73,0.00,,,0.00,Wunderground v.1.15,2013-01-14 07:50:00,
2013-01-14 01:55:00,20.8,13.5,30.23,NW,322,6.0,8.0,73,0.00,,,0.00,Wunderground v.1.15,2013-01-14 07:55:00,
2013-01-14 02:00:00,20.8,13.5,30.24,NW,309,6.0,6.0,73,0.00,,,0.00,Wunderground v.1.15,2013-01-14 08:00:00,
2013-01-14 02:04:00,20.8,13.8,30.24,NW,324,7.0,8.0,74,0.00,,,0.00,Wunderground v.1.15,2013-01-14 08:04:00,
2013-01-14 02:09:00,20.8,13.8,30.24,WNW,297,7.0,7.0,74,0.00,,,0.00,Wunderground v.1.15,2013-01-14 08:09:00,
2013-01-14 02:15:00,20.8,13.8,30.25,NW,313,6.0,9.0,74,0.00,,,0.00,Wunderground v.1.15,2013-01-14 08:15:00,
2013-01-14 02:20:00,21.0,14.3,30.25,West,271,5.0,5.0,75,0.00,,,0.00,Wunderground v.1.15,2013-01-14 08:20:00,
2013-01-14 02:25:00,21.0,14.3,30.25,West,265,6.0,12.0,75,0.00,,,0.00,Wunderground v.1.15,2013-01-14 08:25:00,
2013-01-14 02:30:00,21.0,14.3,30.26,NNW,328,6.0,6.0,75,0.00,,,0.00,Wunderground v.1.15,2013-01-14 08:30:00,
2013-01-14 02:35:00,20.8,14.1,30.26,West,269,6.0,10.0,75,0.00,,,0.00,Wunderground v.1.15,2013-01-14 08:35:00,
2013-01-14 02:39:00,20.8,14.1,30.26,WNW,294,6.0,6.0,75,0.00,,,0.00,Wunderground v.1.15,2013-01-14 08:39:00,
2013-01-14 02:49:00,21.0,14.3,30.27,West,265,5.0,7.0,75,0.00,,,0.00,Wunderground v.1.15,2013-01-14 08:49:00,
2013-01-14 02:54:00,21.0,14.6,30.27,WNW,298,4.0,7.0,76,0.00,,,0.00,Wunderground v.1.15,2013-01-14 08:54:00,
2013-01-14 02:59:00,21.0,14.6,30.27,NW,311,5.0,5.0,76,0.00,,,0.00,Wunderground v.1.15,2013-01-14 08:59:00,
2013-01-14 03:05:00,21.0,14.6,30.27,West,266,5.0,5.0,76,0.00,,,0.00,Wunderground v.1.15,2013-01-14 09:05:00,
2013-01-14 03:10:00,21.0,14.6,30.27,West,281,4.0,5.0,76,0.00,,,0.00,Wunderground v.1.15,2013-01-14 09:10:00,
2013-01-14 03:15:00,21.0,14.6,30.28,West,260,4.0,7.0,76,0.00,,,0.00,Wunderground v.1.15,2013-01-14 09:15:00,
2013-01-14 03:20:00,21.0,14.6,30.28,NNW,329,5.0,7.0,76,0.00,,,0.00,Wunderground v.1.15,2013-01-14 09:20:00,
2013-01-14 03:25:00,21.0,14.3,30.28,NNW,338,6.0,7.0,75,0.00,,,0.00,Wunderground v.1.15,2013-01-14 09:25:00,
2013-01-14 03:30:00,21.0,14.3,30.29,NW,319,7.0,7.0,75,0.00,,,0.00,Wunderground v.1.15,2013-01-14 09:30:00,
2013-01-14 03:35:00,21.0,14.0,30.29,WNW,301,6.0,7.0,74,0.00,,,0.00,Wunderground v.1.15,2013-01-14 09:35:00,
2013-01-14 03:39:00,20.8,13.8,30.29,WNW,295,5.0,6.0,74,0.00,,,0.00,Wunderground v.1.15,2013-01-14 09:39:00,
2013-01-14 03:44:00,20.8,13.5,30.29,WNW,290,5.0,6.0,73,0.00,,,0.00,Wunderground v.1.15,2013-01-14 09:44:00,
2013-01-14 03:49:00,21.0,14.0,30.29,WNW,295,5.0,6.0,74,0.00,,,0.00,Wunderground v.1.15,2013-01-14 09:49:00,
2013-01-14 03:54:00,20.8,13.5,30.29,West,260,4.0,6.0,73,0.00,,,0.00,Wunderground v.1.15,2013-01-14 09:54:00,
2013-01-14 03:59:00,20.8,13.5,30.29,WNW,292,3.0,5.0,73,0.00,,,0.00,Wunderground v.1.15,2013-01-14 09:59:00,
2013-01-14 04:05:00,21.0,14.0,30.29,WNW,290,4.0,5.0,74,0.00,,,0.00,Wunderground v.1.15,2013-01-14 10:05:00,
2013-01-14 04:10:00,21.1,14.4,30.29,West,271,5.0,11.0,75,0.00,,,0.00,Wunderground v.1.15,2013-01-14 10:10:00,
2013-01-14 04:15:00,21.1,14.7,30.29,West,278,5.0,11.0,76,0.00,,,0.00,Wunderground v.1.15,2013-01-14 10:15:00,
2013-01-14 04:20:00,21.1,14.4,30.29,NW,324,5.0,7.0,75,0.00,,,0.00,Wunderground v.1.15,2013-01-14 10:20:00,
2013-01-14 04:25:00,21.1,14.4,30.29,WNW,295,6.0,7.0,75,0.00,,,0.00,Wunderground v.1.15,2013-01-14 10:25:00,
2013-01-14 04:30:00,21.3,14.6,30.30,WNW,288,6.0,6.0,75,0.00,,,0.00,Wunderground v.1.15,2013-01-14 10:30:00,
2013-01-14 04:34:00,21.3,14.6,30.30,West,259,5.0,6.0,75,0.00,,,0.00,Wunderground v.1.15,2013-01-14 10:34:00,
2013-01-14 04:39:00,21.3,14.6,30.30,NW,313,5.0,9.0,75,0.00,,,0.00,Wunderground v.1.15,2013-01-14 10:39:00,
2013-01-14 04:44:00,21.1,14.4,30.30,WNW,284,5.0,10.0,75,0.00,,,0.00,Wunderground v.1.15,2013-01-14 10:44:00,
2013-01-14 04:49:00,21.1,14.7,30.30,WNW,287,5.0,7.0,76,0.00,,,0.00,Wunderground v.1.15,2013-01-14 10:49:00,
2013-01-14 04:54:00,21.4,14.7,30.30,NW,321,6.0,9.0,75,0.00,,,0.00,Wunderground v.1.15,2013-01-14 10:54:00,
2013-01-14 04:59:00,21.4,14.4,30.30,NNW,337,7.0,7.0,74,0.00,,,0.00,Wunderground v.1.15,2013-01-14 10:59:00,
2013-01-14 05:05:00,21.4,14.4,30.30,West,264,5.0,7.0,74,0.00,,,0.00,Wunderground v.1.15,2013-01-14 11:05:00,
2013-01-14 05:10:00,21.4,14.7,30.30,West,262,4.0,4.0,75,0.00,,,0.00,Wunderground v.1.15,2013-01-14 11:10:00,
2013-01-14 05:15:00,21.4,14.7,30.31,NW,313,4.0,4.0,75,0.00,,,0.00,Wunderground v.1.15,2013-01-14 11:15:00,
2013-01-14 05:20:00,21.4,14.7,30.31,West,269,5.0,10.0,75,0.00,,,0.00,Wunderground v.1.15,2013-01-14 11:20:00,
2013-01-14 05:25:00,21.3,14.6,30.31,West,259,5.0,10.0,75,0.00,,,0.00,Wunderground v.1.15,2013-01-14 11:25:00,
2013-01-14 05:30:00,21.3,14.6,30.31,WNW,301,5.0,6.0,75,0.00,,,0.00,Wunderground v.1.15,2013-01-14 11:30:00,
2013-01-14 05:35:00,21.4,14.7,30.31,NW,324,5.0,6.0,75,0.00,,,0.00,Wunderground v.1.15,2013-01-14 11:35:00,
2013-01-14 05:40:00,21.6,14.6,30.31,WNW,300,4.0,4.0,74,0.00,,,0.00,Wunderground v.1.15,2013-01-14 11:40:00,
2013-01-14 05:44:00,21.6,14.3,30.33,NW,320,6.0,10.0,73,0.00,,,0.00,Wunderground v.1.15,2013-01-14 11:44:00,
2013-01-14 05:49:00,21.6,14.3,30.33,WNW,299,6.0,6.0,73,0.00,,,0.00,Wunderground v.1.15,2013-01-14 11:49:00,
2013-01-14 05:54:00,21.6,14.3,30.33,NNW,329,5.0,7.0,73,0.00,,,0.00,Wunderground v.1.15,2013-01-14 11:54:00,
2013-01-14 05:59:00,21.6,14.3,30.33,NNW,329,6.0,6.0,73,0.00,,,0.00,Wunderground v.1.15,2013-01-14 11:59:00,
2013-01-14 06:05:00,21.6,14.6,30.33,NNW,344,6.0,15.0,74,0.00,,,0.00,Wunderground v.1.15,2013-01-14 12:05:00,
2013-01-14 06:10:00,21.6,14.6,30.33,NW,314,6.0,6.0,74,0.00,,,0.00,Wunderground v.1.15,2013-01-14 12:10:00,
2013-01-14 06:15:00,21.6,14.6,30.33,WNW,285,5.0,9.0,74,0.00,,,0.00,Wunderground v.1.15,2013-01-14 12:15:00,
2013-01-14 06:20:00,21.6,14.6,30.33,NNW,333,5.0,5.0,74,0.00,,,0.00,Wunderground v.1.15,2013-01-14 12:20:00,
2013-01-14 06:25:00,21.6,14.9,30.33,WNW,287,5.0,5.0,75,0.00,,,0.00,Wunderground v.1.15,2013-01-14 12:25:00,
2013-01-14 06:35:00,21.9,15.2,30.34,NW,317,7.0,10.0,75,0.00,,,0.00,Wunderground v.1.15,2013-01-14 12:35:00,
2013-01-14 06:40:00,21.8,15.1,30.34,WNW,289,5.0,5.0,75,0.00,,,0.00,Wunderground v.1.15,2013-01-14 12:40:00,
2013-01-14 06:44:00,21.6,14.9,30.36,WNW,288,5.0,5.0,75,0.00,,,0.00,Wunderground v.1.15,2013-01-14 12:44:00,
2013-01-14 06:49:00,21.8,15.1,30.36,WNW,291,5.0,6.0,75,0.00,,,0.00,Wunderground v.1.15,2013-01-14 12:49:00,
2013-01-14 06:54:00,21.8,15.1,30.36,NNW,334,5.0,11.0,75,0.00,,,0.00,Wunderground v.1.15,2013-01-14 12:54:00,
2013-01-14 06:59:00,21.8,15.1,30.36,NNW,329,6.0,9.0,75,0.00,,,0.00,Wunderground v.1.15,2013-01-14 12:59:00,
2013-01-14 07:05:00,21.8,15.1,30.36,WNW,303,8.0,9.0,75,0.00,,,0.00,Wunderground v.1.15,2013-01-14 13:05:00,
2013-01-14 07:10:00,21.6,14.9,30.36,West,281,7.0,7.0,75,0.00,,,0.00,Wunderground v.1.15,2013-01-14 13:10:00,
2013-01-14 07:15:00,21.6,14.9,30.38,WNW,297,5.0,7.0,75,0.00,,,0.00,Wunderground v.1.15,2013-01-14 13:15:00,
2013-01-14 07:20:00,21.6,14.9,30.38,NW,321,6.0,8.0,75,0.00,,,0.00,Wunderground v.1.15,2013-01-14 13:20:00,
2013-01-14 07:25:00,21.6,14.6,30.38,NW,323,7.0,8.0,74,0.00,,,0.00,Wunderground v.1.15,2013-01-14 13:25:00,
2013-01-14 07:29:00,21.4,14.4,30.38,NNW,334,7.0,7.0,74,0.00,,,0.00,Wunderground v.1.15,2013-01-14 13:29:00,
2013-01-14 07:34:00,21.6,14.6,30.38,NW,326,7.0,7.0,74,0.00,,,0.00,Wunderground v.1.15,2013-01-14 13:34:00,
2013-01-14 07:39:00,21.6,14.3,30.38,North,350,8.0,12.0,73,0.00,,,0.00,Wunderground v.1.15,2013-01-14 13:39:00,
2013-01-14 07:49:00,21.6,14.0,30.39,NW,305,7.0,9.0,72,0.00,,,0.00,Wunderground v.1.15,2013-01-14 13:49:00,
2013-01-14 07:54:00,21.6,14.0,30.39,NNW,342,6.0,9.0,72,0.00,,,0.00,Wunderground v.1.15,2013-01-14 13:54:00,
2013-01-14 07:59:00,21.6,14.3,30.39,NNW,333,7.0,9.0,73,0.00,,,0.00,Wunderground v.1.15,2013-01-14 13:59:00,
2013-01-14 08:05:00,21.6,14.0,30.39,NNW,345,8.0,10.0,72,0.00,,,0.00,Wunderground v.1.15,2013-01-14 14:05:00,
2013-01-14 08:10:00,21.6,14.3,30.39,North,360,8.0,16.0,73,0.00,,,0.00,Wunderground v.1.15,2013-01-14 14:10:00,
2013-01-14 08:15:00,21.8,14.5,30.39,North,350,9.0,16.0,73,0.00,,,0.00,Wunderground v.1.15,2013-01-14 14:15:00,
2013-01-14 08:20:00,21.6,14.0,30.39,North,355,9.0,12.0,72,0.00,,,0.00,Wunderground v.1.15,2013-01-14 14:20:00,
2013-01-14 08:25:00,21.8,14.5,30.39,North,350,8.0,12.0,73,0.00,,,0.00,Wunderground v.1.15,2013-01-14 14:25:00,
2013-01-14 08:30:00,21.8,14.5,30.39,North,360,9.0,9.0,73,0.00,,,0.00,Wunderground v.1.15,2013-01-14 14:30:00,
2013-01-14 08:39:00,21.8,14.2,30.39,NNW,344,8.0,9.0,72,0.00,,,0.00,Wunderground v.1.15,2013-01-14 14:39:00,
2013-01-14 08:44:00,21.9,14.3,30.39,NNW,329,9.0,9.0,72,0.00,,,0.00,Wunderground v.1.15,2013-01-14 14:44:00,
2013-01-14 08:49:00,21.9,14.6,30.39,NNW,340,8.0,8.0,73,0.00,,,0.00,Wunderground v.1.15,2013-01-14 14:49:00,
2013-01-14 08:54:00,21.9,14.6,30.39,NNW,335,8.0,10.0,73,0.00,,,0.00,Wunderground v.1.15,2013-01-14 14:54:00,
2013-01-14 08:59:00,21.9,14.6,30.39,North,5,8.0,8.0,73,0.00,,,0.00,Wunderground v.1.15,2013-01-14 14:59:00,
2013-01-14 09:04:00,21.9,14.6,30.39,NNE,23,8.0,8.0,73,0.00,,,0.00,Wunderground v.1.15,2013-01-14 15:04:00,
2013-01-14 09:09:00,21.9,14.6,30.39,North,10,8.0,8.0,73,0.00,,,0.00,Wunderground v.1.15,2013-01-14 15:09:00,
2013-01-14 09:15:00,22.2,15.2,30.39,NNE,21,7.0,12.0,74,0.00,,,0.00,Wunderground v.1.15,2013-01-14 15:15:00,
2013-01-14 09:20:00,22.1,14.8,30.39,NNW,345,7.0,7.0,73,0.00,,,0.00,Wunderground v.1.15,2013-01-14 15:20:00,
2013-01-14 09:25:00,22.1,14.8,30.39,NNW,342,8.0,8.0,73,0.00,,,0.00,Wunderground v.1.15,2013-01-14 15:25:00,
2013-01-14 09:30:00,22.1,14.8,30.39,NW,324,6.0,6.0,73,0.00,,,0.00,Wunderground v.1.15,2013-01-14 15:30:00,
2013-01-14 09:35:00,22.1,15.1,30.39,NNE,12,5.0,6.0,74,0.00,,,0.00,Wunderground v.1.15,2013-01-14 15:35:00,
2013-01-14 09:40:00,22.4,15.4,30.39,North,355,5.0,8.0,74,0.00,,,0.00,Wunderground v.1.15,2013-01-14 15:40:00,
2013-01-14 09:44:00,22.2,14.9,30.39,North,355,6.0,8.0,73,0.00,,,0.00,Wunderground v.1.15,2013-01-14 15:44:00,
2013-01-14 09:49:00,22.1,14.4,30.39,North,9,7.0,7.0,72,0.00,,,0.00,Wunderground v.1.15,2013-01-14 15:49:00,
2013-01-14 09:54:00,22.2,14.9,30.39,NNW,327,6.0,10.0,73,0.00,,,0.00,Wunderground v.1.15,2013-01-14 15:54:00,
2013-01-14 09:59:00,22.2,14.9,30.38,North,9,6.0,8.0,73,0.00,,,0.00,Wunderground v.1.15,2013-01-14 15:59:00,
2013-01-14 10:04:00,22.2,14.9,30.38,North,355,5.0,8.0,73,0.00,,,0.00,Wunderground v.1.15,2013-01-14 16:04:00,
2013-01-14 10:10:00,22.4,15.1,30.38,NNE,12,6.0,10.0,73,0.00,,,0.00,Wunderground v.1.15,2013-01-14 16:10:00,
2013-01-14 10:15:00,22.4,14.7,30.38,NNE,24,7.0,10.0,72,0.00,,,0.00,Wunderground v.1.15,2013-01-14 16:15:00,
2013-01-14 10:20:00,22.4,14.7,30.38,NNE,31,6.0,6.0,72,0.00,,,0.00,Wunderground v.1.15,2013-01-14 16:20:00,
2013-01-14 10:25:00,22.4,14.7,30.38,NNE,28,5.0,6.0,72,0.00,,,0.00,Wunderground v.1.15,2013-01-14 16:25:00,
2013-01-14 10:30:00,22.4,15.1,30.38,NNW,346,6.0,7.0,73,0.00,,,0.00,Wunderground v.1.15,2013-01-14 16:30:00,
2013-01-14 10:35:00,22.5,15.1,30.38,North,355,6.0,10.0,73,0.00,,,0.00,Wunderground v.1.15,2013-01-14 16:35:00,
2013-01-14 10:39:00,22.5,15.1,30.38,NNE,21,6.0,11.0,73,0.00,,,0.00,Wunderground v.1.15,2013-01-14 16:39:00,
2013-01-14 10:44:00,22.5,14.8,30.38,NE,34,5.0,11.0,72,0.00,,,0.00,Wunderground v.1.15,2013-01-14 16:44:00,
2013-01-14 10:49:00,22.7,15.0,30.38,NNE,26,5.0,5.0,72,0.00,,,0.00,Wunderground v.1.15,2013-01-14 16:49:00,
2013-01-14 10:54:00,22.5,15.1,30.38,North,360,5.0,9.0,73,0.00,,,0.00,Wunderground v.1.15,2013-01-14 16:54:00,
2013-01-14 10:59:00,22.5,15.1,30.37,NNE,15,6.0,6.0,73,0.00,,,0.00,Wunderground v.1.15,2013-01-14 16:59:00,
2013-01-14 11:05:00,22.5,14.8,30.37,NNE,15,7.0,7.0,72,0.00,,,0.00,Wunderground v.1.15,2013-01-14 17:05:00,
2013-01-14 11:10:00,22.5,14.8,30.37,North,355,7.0,7.0,72,0.00,,,0.00,Wunderground v.1.15,2013-01-14 17:10:00,
2013-01-14 11:20:00,22.7,15.0,30.37,NNW,342,8.0,11.0,72,0.00,,,0.00,Wunderground v.1.15,2013-01-14 17:20:00,
2013-01-14 11:25:00,22.7,15.0,30.37,North,350,9.0,11.0,72,0.00,,,0.00,Wunderground v.1.15,2013-01-14 17:25:00,
2013-01-14 11:30:00,22.7,15.3,30.37,North,351,7.0,7.0,73,0.00,,,0.00,Wunderground v.1.15,2013-01-14 17:30:00,
2013-01-14 11:35:00,22.9,15.5,30.37,NNW,340,7.0,7.0,73,0.00,,,0.00,Wunderground v.1.15,2013-01-14 17:35:00,
2013-01-14 11:40:00,23.0,15.6,30.37,NNW,338,6.0,6.0,73,0.00,,,0.00,Wunderground v.1.15,2013-01-14 17:40:00,
2013-01-14 11:45:00,23.2,15.8,30.37,NNE,24,4.0,6.0,73,0.00,,,0.00,Wunderground v.1.15,2013-01-14 17:45:00,
2013-01-14 11:50:00,23.2,15.5,30.37,NE,40,5.0,5.0,72,0.00,,,0.00,Wunderground v.1.15,2013-01-14 17:50:00,
2013-01-14 11:59:00,23.2,15.5,30.37,NNE,20,4.0,4.0,72,0.00,,,0.00,Wunderground v.1.15,2013-01-14 17:59:00,
2013-01-14 12:04:00,23.0,15.0,30.37,NNE,22,6.0,6.0,71,0.00,,,0.00,Wunderground v.1.15,2013-01-14 18:04:00,
2013-01-14 12:10:00,23.2,15.2,30.37,NNE,18,6.0,7.0,71,0.00,,,0.00,Wunderground v.1.15,2013-01-14 18:10:00,
2013-01-14 12:15:00,23.2,15.2,30.38,NW,325,5.0,7.0,71,0.00,,,0.00,Wunderground v.1.15,2013-01-14 18:15:00,
2013-01-14 12:20:00,23.2,14.9,30.38,NW,324,6.0,6.0,70,0.00,,,0.00,Wunderground v.1.15,2013-01-14 18:20:00,
2013-01-14 12:24:00,23.2,14.9,30.38,NW,318,6.0,6.0,70,0.00,,,0.00,Wunderground v.1.15,2013-01-14 18:24:00,
2013-01-14 12:30:00,23.3,15.0,30.37,NNW,331,6.0,6.0,70,0.00,,,0.00,Wunderground v.1.15,2013-01-14 18:30:00,
2013-01-14 12:35:00,23.2,14.2,30.37,NNW,342,6.0,6.0,68,0.00,,,0.00,Wunderground v.1.15,2013-01-14 18:35:00,
2013-01-14 12:40:00,23.3,14.6,30.37,North,5,6.0,9.0,69,0.00,,,0.00,Wunderground v.1.15,2013-01-14 18:40:00,
2013-01-14 12:45:00,23.3,14.3,30.38,North,355,6.0,9.0,68,0.00,,,0.00,Wunderground v.1.15,2013-01-14 18:45:00,
2013-01-14 12:50:00,23.6,14.6,30.38,NNW,344,6.0,6.0,68,0.00,,,0.00,Wunderground v.1.15,2013-01-14 18:50:00,
2013-01-14 12:55:00,23.6,14.2,30.38,North,350,5.0,6.0,67,0.00,,,0.00,Wunderground v.1.15,2013-01-14 18:55:00,
2013-01-14 13:00:00,23.9,14.5,30.39,NNW,346,4.0,4.0,67,0.00,,,0.00,Wunderground v.1.15,2013-01-14 19:00:00,
2013-01-14 13:04:00,23.8,14.8,30.39,NNW,346,3.0,4.0,68,0.00,,,0.00,Wunderground v.1.15,2013-01-14 19:04:00,
2013-01-14 13:09:00,23.8,14.8,30.39,NNW,346,3.0,3.0,68,0.00,,,0.00,Wunderground v.1.15,2013-01-14 19:09:00,
2013-01-14 13:14:00,23.9,15.5,30.39,NNW,341,2.0,3.0,70,0.00,,,0.00,Wunderground v.1.15,2013-01-14 19:14:00,
2013-01-14 13:19:00,24.1,15.4,30.39,NNW,338,3.0,9.0,69,0.00,,,0.00,Wunderground v.1.15,2013-01-14 19:19:00,
2013-01-14 13:24:00,23.8,14.4,30.39,NNW,338,4.0,9.0,67,0.00,,,0.00,Wunderground v.1.15,2013-01-14 19:24:00,
2013-01-14 13:29:00,23.8,14.1,30.39,NNW,342,5.0,5.0,66,0.00,,,0.00,Wunderground v.1.15,2013-01-14 19:29:00,
2013-01-14 13:34:00,23.8,14.4,30.39,NNW,346,4.0,5.0,67,0.00,,,0.00,Wunderground v.1.15,2013-01-14 19:34:00,
2013-01-14 13:39:00,23.8,14.8,30.39,NNW,348,4.0,5.0,68,0.00,,,0.00,Wunderground v.1.15,2013-01-14 19:39:00,
2013-01-14 13:44:00,23.8,14.8,30.40,NNW,348,3.0,5.0,68,0.00,,,0.00,Wunderground v.1.15,2013-01-14 19:44:00,
2013-01-14 13:49:00,23.9,15.2,30.40,NNW,348,2.0,3.0,69,0.00,,,0.00,Wunderground v.1.15,2013-01-14 19:49:00,
2013-01-14 13:54:00,24.1,15.4,30.40,NNW,340,2.0,5.0,69,0.00,,,0.00,Wunderground v.1.15,2013-01-14 19:54:00,
2013-01-14 14:00:00,24.1,15.1,30.40,NNW,332,3.0,3.0,68,0.00,,,0.00,Wunderground v.1.15,2013-01-14 20:00:00,
2013-01-14 14:05:00,23.9,14.5,30.40,NNW,333,4.0,4.0,67,0.00,,,0.00,Wunderground v.1.15,2013-01-14 20:05:00,
2013-01-14 14:10:00,24.1,14.7,30.40,North,355,4.0,5.0,67,0.00,,,0.00,Wunderground v.1.15,2013-01-14 20:10:00,
2013-01-14 14:14:00,23.9,14.9,30.41,North,360,5.0,9.0,68,0.00,,,0.00,Wunderground v.1.15,2013-01-14 20:14:00,
2013-01-14 14:19:00,23.9,14.9,30.41,North,351,5.0,5.0,68,0.00,,,0.00,Wunderground v.1.15,2013-01-14 20:19:00,
2013-01-14 14:24:00,24.1,15.1,30.41,North,349,4.0,5.0,68,0.00,,,0.00,Wunderground v.1.15,2013-01-14 20:24:00,
2013-01-14 14:29:00,24.1,15.1,30.41,NNW,348,4.0,4.0,68,0.00,,,0.00,Wunderground v.1.15,2013-01-14 20:29:00,
2013-01-14 14:34:00,24.1,15.1,30.41,NNW,336,4.0,4.0,68,0.00,,,0.00,Wunderground v.1.15,2013-01-14 20:34:00,
2013-01-14 14:39:00,24.2,15.2,30.41,NNW,336,4.0,4.0,68,0.00,,,0.00,Wunderground v.1.15,2013-01-14 20:39:00,
2013-01-14 14:44:00,24.2,15.2,30.41,NNW,336,4.0,5.0,68,0.00,,,0.00,Wunderground v.1.15,2013-01-14 20:44:00,
2013-01-14 14:49:00,24.2,14.8,30.41,NNW,337,4.0,5.0,67,0.00,,,0.00,Wunderground v.1.15,2013-01-14 20:49:00,
2013-01-14 14:54:00,24.4,15.0,30.41,North,349,4.0,5.0,67,0.00,,,0.00,Wunderground v.1.15,2013-01-14 20:54:00,
2013-01-14 14:59:00,24.4,15.0,30.41,NNW,347,4.0,5.0,67,0.00,,,0.00,Wunderground v.1.15,2013-01-14 20:59:00,
2013-01-14 15:05:00,24.5,15.1,30.41,North,350,4.0,5.0,67,0.00,,,0.00,Wunderground v.1.15,2013-01-14 21:05:00,
2013-01-14 15:10:00,24.5,14.8,30.41,NNW,343,4.0,4.0,66,0.00,,,0.00,Wunderground v.1.15,2013-01-14 21:10:00,
2013-01-14 15:15:00,24.7,15.3,30.41,NNW,329,4.0,5.0,67,0.00,,,0.00,Wunderground v.1.15,2013-01-14 21:15:00,
2013-01-14 15:20:00,24.8,14.7,30.41,NNW,327,4.0,4.0,65,0.00,,,0.00,Wunderground v.1.15,2013-01-14 21:20:00,
2013-01-14 15:24:00,24.7,14.6,30.41,NNW,327,4.0,4.0,65,0.00,,,0.00,Wunderground v.1.15,2013-01-14 21:24:00,
2013-01-14 15:29:00,24.8,15.0,30.42,NW,322,3.0,3.0,66,0.00,,,0.00,Wunderground v.1.15,2013-01-14 21:29:00,
2013-01-14 15:34:00,24.8,15.0,30.42,NW,316,3.0,3.0,66,0.00,,,0.00,Wunderground v.1.15,2013-01-14 21:34:00,
2013-01-14 15:39:00,24.8,14.7,30.42,NW,316,3.0,3.0,65,0.00,,,0.00,Wunderground v.1.15,2013-01-14 21:39:00,
2013-01-14 15:44:00,24.8,15.0,30.42,NW,316,3.0,3.0,66,0.00,,,0.00,Wunderground v.1.15,2013-01-14 21:44:00,
2013-01-14 15:49:00,24.8,15.4,30.42,NW,316,2.0,4.0,67,0.00,,,0.00,Wunderground v.1.15,2013-01-14 21:49:00,
2013-01-14 15:54:00,24.8,15.0,30.42,NW,316,1.0,4.0,66,0.00,,,0.00,Wunderground v.1.15,2013-01-14 21:54:00,
2013-01-14 15:59:00,24.8,15.0,30.42,NW,316,1.0,1.0,66,0.00,,,0.00,Wunderground v.1.15,2013-01-14 21:59:00,
2013-01-14 16:05:00,24.8,15.4,30.42,NW,316,1.0,1.0,67,0.00,,,0.00,Wunderground v.1.15,2013-01-14 22:05:00,
2013-01-14 16:10:00,24.8,15.0,30.42,NW,316,1.0,3.0,66,0.00,,,0.00,Wunderground v.1.15,2013-01-14 22:10:00,
2013-01-14 16:15:00,24.8,15.0,30.42,NW,316,2.0,3.0,66,0.00,,,0.00,Wunderground v.1.15,2013-01-14 22:15:00,
2013-01-14 16:20:00,24.8,14.7,30.42,NW,316,2.0,2.0,65,0.00,,,0.00,Wunderground v.1.15,2013-01-14 22:20:00,
2013-01-14 16:24:00,24.8,14.7,30.42,NW,316,1.0,2.0,65,0.00,,,0.00,Wunderground v.1.15,2013-01-14 22:24:00,
2013-01-14 16:29:00,24.7,14.6,30.42,NW,317,1.0,1.0,65,0.00,,,0.00,Wunderground v.1.15,2013-01-14 22:29:00,
2013-01-14 16:34:00,24.7,14.2,30.42,NW,317,1.0,1.0,64,0.00,,,0.00,Wunderground v.1.15,2013-01-14 22:34:00,
2013-01-14 16:39:00,24.7,14.6,30.42,NW,317,1.0,1.0,65,0.00,,,0.00,Wunderground v.1.15,2013-01-14 22:39:00,
2013-01-14 16:44:00,24.7,14.6,30.42,NW,317,0.0,1.0,65,0.00,,,0.00,Wunderground v.1.15,2013-01-14 22:44:00,
2013-01-14 16:49:00,24.7,14.6,30.42,NW,317,0.0,0.0,65,0.00,,,0.00,Wunderground v.1.15,2013-01-14 22:49:00,
2013-01-14 16:54:00,24.7,14.6,30.42,NW,317,0.0,0.0,65,0.00,,,0.00,Wunderground v.1.15,2013-01-14 22:54:00,
2013-01-14 16:59:00,24.7,14.6,30.42,NW,317,0.0,1.0,65,0.00,,,0.00,Wunderground v.1.15,2013-01-14 22:59:00,
2013-01-14 17:05:00,24.7,14.6,30.42,NW,317,1.0,2.0,65,0.00,,,0.00,Wunderground v.1.15,2013-01-14 23:05:00,
2013-01-14 17:10:00,24.7,14.6,30.42,NW,317,1.0,2.0,65,0.00,,,0.00,Wunderground v.1.15,2013-01-14 23:10:00,
2013-01-14 17:15:00,24.5,14.4,30.41,NW,317,1.0,2.0,65,0.00,,,0.00,Wunderground v.1.15,2013-01-14 23:15:00,
2013-01-14 17:20:00,24.5,14.1,30.41,NW,317,1.0,1.0,64,0.00,,,0.00,Wunderground v.1.15,2013-01-14 23:20:00,
2013-01-14 17:25:00,24.5,14.4,30.41,NW,317,0.0,1.0,65,0.00,,,0.00,Wunderground v.1.15,2013-01-14 23:25:00,
2013-01-14 17:30:00,24.5,14.4,30.41,NW,317,0.0,0.0,65,0.00,,,0.00,Wunderground v.1.15,2013-01-14 23:30:00,
2013-01-14 17:34:00,24.5,14.4,30.41,NW,317,0.0,0.0,65,0.00,,,0.00,Wunderground v.1.15,2013-01-14 23:34:00,
2013-01-14 17:39:00,24.5,14.4,30.41,NW,317,0.0,1.0,65,0.00,,,0.00,Wunderground v.1.15,2013-01-14 23:39:00,
2013-01-14 17:44:00,24.5,14.4,30.41,NW,317,1.0,1.0,65,0.00,,,0.00,Wunderground v.1.15,2013-01-14 23:44:00,
2013-01-14 17:49:00,24.5,14.8,30.41,NW,317,1.0,1.0,66,0.00,,,0.00,Wunderground v.1.15,2013-01-14 23:49:00,
2013-01-14 17:54:00,24.5,14.8,30.41,NW,317,0.0,1.0,66,0.00,,,0.00,Wunderground v.1.15,2013-01-14 23:54:00,
2013-01-14 17:59:00,24.5,14.8,30.41,NW,317,0.0,0.0,66,0.00,,,0.00,Wunderground v.1.15,2013-01-14 23:59:00,
2013-01-14 18:05:00,24.7,15.3,30.41,NW,317,0.0,1.0,67,0.00,,,0.00,Wunderground v.1.15,2013-01-15 00:05:00,
2013-01-14 18:10:00,24.7,15.3,30.41,NW,317,1.0,1.0,67,0.00,,,0.00,Wunderground v.1.15,2013-01-15 00:10:00,
2013-01-14 18:15:00,24.7,14.9,30.41,NW,317,1.0,1.0,66,0.00,,,0.00,Wunderground v.1.15,2013-01-15 00:15:00,
2013-01-14 18:20:00,24.7,14.9,30.41,NW,317,1.0,2.0,66,0.00,,,0.00,Wunderground v.1.15,2013-01-15 00:20:00,
2013-01-14 18:25:00,24.7,15.3,30.41,NW,317,1.0,2.0,67,0.00,,,0.00,Wunderground v.1.15,2013-01-15 00:25:00,
2013-01-14 18:30:00,24.7,15.3,30.41,NW,317,1.0,1.0,67,0.00,,,0.00,Wunderground v.1.15,2013-01-15 00:30:00,
2013-01-14 18:35:00,24.5,15.1,30.41,WNW,303,1.0,4.0,67,0.00,,,0.00,Wunderground v.1.15,2013-01-15 00:35:00,
2013-01-14 18:39:00,24.5,14.8,30.41,WNW,297,1.0,1.0,66,0.00,,,0.00,Wunderground v.1.15,2013-01-15 00:39:00,
2013-01-14 18:44:00,24.4,14.7,30.40,WNW,297,1.0,1.0,66,0.00,,,0.00,Wunderground v.1.15,2013-01-15 00:44:00,
2013-01-14 18:49:00,24.4,15.0,30.40,WNW,296,1.0,1.0,67,0.00,,,0.00,Wunderground v.1.15,2013-01-15 00:49:00,
2013-01-14 18:54:00,24.2,14.8,30.40,WNW,295,1.0,1.0,67,0.00,,,0.00,Wunderground v.1.15,2013-01-15 00:54:00,
2013-01-14 18:59:00,24.2,14.8,30.41,WNW,295,1.0,1.0,67,0.00,,,0.00,Wunderground v.1.15,2013-01-15 00:59:00,
2013-01-14 19:05:00,24.1,14.7,30.41,WNW,295,1.0,1.0,67,0.00,,,0.00,Wunderground v.1.15,2013-01-15 01:05:00,
2013-01-14 19:10:00,24.1,14.7,30.41,WNW,295,1.0,1.0,67,0.00,,,0.00,Wunderground v.1.15,2013-01-15 01:10:00,
2013-01-14 19:15:00,24.1,14.7,30.41,WNW,295,1.0,2.0,67,0.00,,,0.00,Wunderground v.1.15,2013-01-15 01:15:00,
2013-01-14 19:20:00,23.9,14.5,30.41,WNW,295,2.0,3.0,67,0.00,,,0.00,Wunderground v.1.15,2013-01-15 01:20:00,
2013-01-14 19:25:00,23.9,14.5,30.41,WNW,295,1.0,3.0,67,0.00,,,0.00,Wunderground v.1.15,2013-01-15 01:25:00,
2013-01-14 19:30:00,23.9,14.5,30.41,WNW,295,1.0,2.0,67,0.00,,,0.00,Wunderground v.1.15,2013-01-15 01:30:00,
2013-01-14 19:35:00,23.8,14.4,30.41,WNW,295,1.0,3.0,67,0.00,,,0.00,Wunderground v.1.15,2013-01-15 01:35:00,
2013-01-14 19:40:00,23.6,14.6,30.41,WNW,295,1.0,2.0,68,0.00,,,0.00,Wunderground v.1.15,2013-01-15 01:40:00,
2013-01-14 19:45:00,23.6,14.6,30.41,WNW,295,1.0,2.0,68,0.00,,,0.00,Wunderground v.1.15,2013-01-15 01:45:00,
2013-01-14 19:49:00,23.5,14.5,30.41,WNW,294,2.0,3.0,68,0.00,,,0.00,Wunderground v.1.15,2013-01-15 01:49:00,
2013-01-14 19:54:00,23.5,14.5,30.41,WNW,294,2.0,3.0,68,0.00,,,0.00,Wunderground v.1.15,2013-01-15 01:54:00,
2013-01-14 19:59:00,23.5,14.5,30.40,WNW,294,2.0,2.0,68,0.00,,,0.00,Wunderground v.1.15,2013-01-15 01:59:00,
2013-01-14 20:05:00,23.3,14.3,30.40,WNW,292,2.0,2.0,68,0.00,,,0.00,Wunderground v.1.15,2013-01-15 02:05:00,
2013-01-14 20:10:00,23.2,14.2,30.40,West,281,1.0,1.0,68,0.00,,,0.00,Wunderground v.1.15,2013-01-15 02:10:00,
2013-01-14 20:15:00,23.2,14.5,30.40,West,281,1.0,1.0,69,0.00,,,0.00,Wunderground v.1.15,2013-01-15 02:15:00,
2013-01-14 20:20:00,23.0,14.3,30.40,West,281,1.0,1.0,69,0.00,,,0.00,Wunderground v.1.15,2013-01-15 02:20:00,
2013-01-14 20:25:00,23.0,14.3,30.40,WSW,248,2.0,2.0,69,0.00,,,0.00,Wunderground v.1.15,2013-01-15 02:25:00,
2013-01-14 20:30:00,22.9,14.2,30.39,WSW,247,1.0,1.0,69,0.00,,,0.00,Wunderground v.1.15,2013-01-15 02:30:00,
2013-01-14 20:35:00,22.9,14.6,30.39,WSW,247,1.0,1.0,70,0.00,,,0.00,Wunderground v.1.15,2013-01-15 02:35:00,
2013-01-14 20:40:00,22.7,14.4,30.39,WSW,247,0.0,0.0,70,0.00,,,0.00,Wunderground v.1.15,2013-01-15 02:40:00,
2013-01-14 20:45:00,22.7,14.4,30.39,WSW,247,1.0,3.0,70,0.00,,,0.00,Wunderground v.1.15,2013-01-15 02:45:00,
2013-01-14 20:50:00,22.7,14.4,30.39,WSW,246,1.0,1.0,70,0.00,,,0.00,Wunderground v.1.15,2013-01-15 02:50:00,
2013-01-14 20:55:00,22.5,14.2,30.39,WSW,246,0.0,3.0,70,0.00,,,0.00,Wunderground v.1.15,2013-01-15 02:55:00,
2013-01-14 20:59:00,22.5,14.2,30.39,WSW,246,0.0,0.0,70,0.00,,,0.00,Wunderground v.1.15,2013-01-15 02:59:00,
2013-01-14 21:04:00,22.5,14.2,30.39,WSW,246,0.0,0.0,70,0.00,,,0.00,Wunderground v.1.15,2013-01-15 03:04:00,
2013-01-14 21:09:00,22.4,14.4,30.39,WSW,246,0.0,0.0,71,0.00,,,0.00,Wunderground v.1.15,2013-01-15 03:09:00,
2013-01-14 21:14:00,22.2,14.2,30.39,WSW,246,0.0,0.0,71,0.00,,,0.00,Wunderground v.1.15,2013-01-15 03:14:00,
2013-01-14 21:19:00,22.2,14.2,30.39,WSW,246,0.0,0.0,71,0.00,,,0.00,Wunderground v.1.15,2013-01-15 03:19:00,
2013-01-14 21:25:00,22.1,14.4,30.39,WSW,246,0.0,1.0,72,0.00,,,0.00,Wunderground v.1.15,2013-01-15 03:25:00,
2013-01-14 21:30:00,22.1,14.4,30.39,WSW,246,1.0,2.0,72,0.00,,,0.00,Wunderground v.1.15,2013-01-15 03:30:00,
2013-01-14 21:35:00,22.2,14.5,30.39,WSW,246,2.0,2.0,72,0.00,,,0.00,Wunderground v.1.15,2013-01-15 03:35:00,
2013-01-14 21:40:00,22.1,14.4,30.39,WSW,246,1.0,1.0,72,0.00,,,0.00,Wunderground v.1.15,2013-01-15 03:40:00,
2013-01-14 21:50:00,21.9,14.3,30.38,WSW,246,1.0,1.0,72,0.00,,,0.00,Wunderground v.1.15,2013-01-15 03:50:00,
2013-01-14 21:55:00,21.8,14.2,30.38,WSW,246,1.0,1.0,72,0.00,,,0.00,Wunderground v.1.15,2013-01-15 03:55:00,
2013-01-14 22:00:00,21.8,14.5,30.38,WSW,246,1.0,1.0,73,0.00,,,0.00,Wunderground v.1.15,2013-01-15 04:00:00,
2013-01-14 22:09:00,21.4,14.1,30.38,WSW,246,0.0,1.0,73,0.00,,,0.00,Wunderground v.1.15,2013-01-15 04:09:00,
2013-01-14 22:14:00,21.3,14.0,30.39,WSW,246,1.0,1.0,73,0.00,,,0.00,Wunderground v.1.15,2013-01-15 04:14:00,
2013-01-14 22:19:00,21.1,13.8,30.39,WSW,246,2.0,2.0,73,0.00,,,0.00,Wunderground v.1.15,2013-01-15 04:19:00,
2013-01-14 22:24:00,21.1,14.1,30.39,WSW,246,1.0,2.0,74,0.00,,,0.00,Wunderground v.1.15,2013-01-15 04:24:00,
2013-01-14 22:29:00,20.8,13.8,30.39,WSW,246,1.0,2.0,74,0.00,,,0.00,Wunderground v.1.15,2013-01-15 04:29:00,
2013-01-14 22:34:00,20.6,13.9,30.39,WSW,246,1.0,2.0,75,0.00,,,0.00,Wunderground v.1.15,2013-01-15 04:34:00,
2013-01-14 22:39:00,20.5,13.8,30.39,WSW,246,1.0,1.0,75,0.00,,,0.00,Wunderground v.1.15,2013-01-15 04:39:00,
2013-01-14 22:45:00,20.2,13.8,30.39,WSW,246,1.0,1.0,76,0.00,,,0.00,Wunderground v.1.15,2013-01-15 04:45:00,
2013-01-14 22:50:00,20.2,13.8,30.39,WSW,246,1.0,1.0,76,0.00,,,0.00,Wunderground v.1.15,2013-01-15 04:50:00,
2013-01-14 22:54:00,20.0,13.6,30.39,WSW,246,1.0,2.0,76,0.00,,,0.00,Wunderground v.1.15,2013-01-15 04:54:00,
2013-01-14 23:00:00,19.9,13.6,30.38,WSW,246,1.0,1.0,76,0.00,,,0.00,Wunderground v.1.15,2013-01-15 05:00:00,
2013-01-14 23:05:00,19.9,13.9,30.38,WSW,246,1.0,1.0,77,0.00,,,0.00,Wunderground v.1.15,2013-01-15 05:05:00,
2013-01-14 23:10:00,19.5,13.5,30.38,WSW,246,1.0,1.0,77,0.00,,,0.00,Wunderground v.1.15,2013-01-15 05:10:00,
2013-01-14 23:14:00,19.4,13.4,30.39,WSW,246,0.0,1.0,77,0.00,,,0.00,Wunderground v.1.15,2013-01-15 05:14:00,
2013-01-14 23:19:00,19.2,13.5,30.39,WSW,246,0.0,0.0,78,0.00,,,0.00,Wunderground v.1.15,2013-01-15 05:19:00,
2013-01-14 23:24:00,19.1,13.4,30.39,WSW,246,0.0,0.0,78,0.00,,,0.00,Wunderground v.1.15,2013-01-15 05:24:00,
2013-01-14 23:29:00,19.1,13.7,30.39,WSW,246,1.0,4.0,79,0.00,,,0.00,Wunderground v.1.15,2013-01-15 05:29:00,
2013-01-14 23:34:00,19.2,13.8,30.39,WSW,246,1.0,4.0,79,0.00,,,0.00,Wunderground v.1.15,2013-01-15 05:34:00,
2013-01-14 23:39:00,19.4,13.9,30.39,WSW,246,1.0,1.0,79,0.00,,,0.00,Wunderground v.1.15,2013-01-15 05:39:00,
2013-01-14 23:44:00,19.1,13.7,30.39,WSW,246,2.0,2.0,79,0.00,,,0.00,Wunderground v.1.15,2013-01-15 05:44:00,
2013-01-14 23:49:00,19.1,13.7,30.39,WSW,246,2.0,2.0,79,0.00,,,0.00,Wunderground v.1.15,2013-01-15 05:49:00,
2013-01-14 23:54:00,18.9,13.5,30.39,WSW,246,2.0,2.0,79,0.00,,,0.00,Wunderground v.1.15,2013-01-15 05:54:00,
2013-01-14 23:59:00,18.8,13.4,30.39,WSW,246,1.0,2.0,79,0.00,,,0.00,Wunderground v.1.15,2013-01-15 05:59:00,